Waarnemingen

Advertentie
Mijn weer
Angelholm, Zweden (2607): temperatuur & dauwpunt: 14.01.2021 19:00:00 - 20.01.2021 19:00:00 (CET)Angelholm, Zweden (2607): windsnelheid: 14.01.2021 19:00:00 - 20.01.2021 19:00:00 (CET)Angelholm, Zweden (2607): windrichting: 14.01.2021 19:00:00 - 20.01.2021 19:00:00 (CET)Angelholm, Zweden (2607): luchtdruk: 14.01.2021 19:00:00 - 20.01.2021 19:00:00 (CET)Angelholm, Zweden (2607): zicht: 14.01.2021 19:00:00 - 20.01.2021 19:00:00 (CET)
Datum & Tijd tt [°C] td [°C] ff [km/u] ff [kn] dd ppp [hPa] vv [km]
20.01.2021 19:00:00 6,0 5,4 24 13 ZZW 993,0 4,7
20.01.2021 18:00:00 5,8 5,2 16 9 Z 992,8 4,6
20.01.2021 17:00:00 5,6 5,0 16 9 Z 992,7 7
20.01.2021 16:00:00 5,4 4,8 16 9 Z 992,5 4,1
20.01.2021 15:00:00 5,1 4,5 15 8 Z 992,3 5
20.01.2021 14:00:00 4,8 4,2 16 9 Z 992,4 5
20.01.2021 13:00:00 4,4 3,8 18 10 Z 992,7 3,9
20.01.2021 12:00:00 4,0 3,4 18 10 Z 993,2 4,5
20.01.2021 11:00:00 3,7 3,1 15 8 ZZO 993,8 9
20.01.2021 10:00:00 4,2 3,9 13 7 Z 994,0 8
20.01.2021 09:00:00 3,5 3,4 15 8 ZZO 994,1 2,7
20.01.2021 08:00:00 1,7 1,6 11 6 OZO 994,2 4,2
20.01.2021 07:00:00 1,8 1,5 21 11 OZO 994,6 6
20.01.2021 06:00:00 1,5 1,2 21 11 OZO 995,2 7
20.01.2021 05:00:00 1,4 1,1 18 10 OZO 995,9 5
20.01.2021 04:00:00 1,3 1,0 16 9 OZO 996,4 6
20.01.2021 03:00:00 1,1 0,8 15 8 O 997,0 2,5
20.01.2021 02:00:00 1,1 0,8 13 7 O 997,6 5
20.01.2021 01:00:00 0,9 0,6 13 7 OZO 998,0 0,5
20.01.2021 00:00:00 0,9 0,6 15 8 OZO 998,5 1,9
19.01.2021 23:00:00 0,8 0,5 11 6 OZO 999,0 1,2
19.01.2021 22:00:00 0,7 0,4 13 7 OZO 999,1 1,5
19.01.2021 21:00:00 0,6 0,3 11 6 ZO 999,4 3,0
19.01.2021 20:00:00 0,6 0,3 13 7 ZO 999,2 2,7
19.01.2021 19:00:00 0,6 0,0 16 9 ZO 999,3 10
19.01.2021 18:00:00 0,5 0,2 16 9 OZO 999,6 8
19.01.2021 17:00:00 0,4 0,1 15 8 ZO 999,8 4,1
19.01.2021 16:00:00 0,9 0,3 15 8 ZO 1000,2 4,1
19.01.2021 15:00:00 1,4 1,1 16 9 ZO 1000,4 6
19.01.2021 14:00:00 1,5 1,2 16 9 ZO 1000,7 3,0
19.01.2021 13:00:00 1,2 1,0 11 6 ZO 1001,8 3,1
19.01.2021 12:00:00 1,2 0,9 15 8 ZO 1002,7 2,5
19.01.2021 11:00:00 0,9 0,6 16 9 ZO 1003,4 4,1
19.01.2021 10:00:00 0,9 0,6 16 9 OZO 1004,3 0,8
19.01.2021 09:00:00 0,7 0,4 13 7 ZO 1004,9 0,2
19.01.2021 08:00:00 0,9 0,6 13 7 ZO 1005,4 0,2
19.01.2021 07:00:00 1,0 0,7 9 5 ZO 1005,9 0,2
19.01.2021 06:00:00 1,0 0,7 8 4 ZZO 1006,5 0,1
19.01.2021 05:00:00 0,5 0,2 8 4 ZO 1007,1 0,1
19.01.2021 04:00:00 0,5 0,2 9 5 OZO 1007,8 0,5
19.01.2021 03:00:00 0,5 0,2 13 7 OZO 1007,9 0,8
19.01.2021 02:00:00 0,4 0,1 4 2 O 1008,9 0,8
19.01.2021 01:00:00 0,5 0,2 11 6 ZO 1008,8 1,9
19.01.2021 00:00:00 0,3 0,0 9 5 ZO 1009,2 1,5
18.01.2021 23:00:00 0,4 0,0 13 7 OZO 1009,7 2,3
18.01.2021 22:00:00 0,4 0,0 18 10 ZO 1009,8 2,4
18.01.2021 21:00:00 0,4 0,0 18 10 ZO 1010,0 2,4
18.01.2021 20:00:00 0,4 0,1 18 10 ZO 1010,2 2,1
18.01.2021 19:00:00 0,3 -0,1 21 11 ZO 1010,6 1,7
18.01.2021 18:00:00 0,4 -0,2 22 12 ZO 1010,9 2,7
18.01.2021 17:00:00 0,4 -0,2 21 11 ZO 1011,6 4,0
18.01.2021 16:00:00 0,3 -0,3 21 11 ZZO 1012,1 3,5
18.01.2021 15:00:00 0,4 -0,2 18 10 ZZO 1012,5 5
18.01.2021 14:00:00 0,2 -0,1 15 8 ZZO 1013,3 6
18.01.2021 13:00:00 -0,7 -1,0 9 5 O 1014,3 5
18.01.2021 12:00:00 -1,5 -1,9 9 5 ZO 1015,0 6
18.01.2021 11:00:00 -2,4 -2,8 8 4 ZO 1015,7 5
18.01.2021 10:00:00 -3,8 -4,3 5 3 ZO 1016,1 10
18.01.2021 09:00:00 -4,8 -5,5 5 3 ZO 1016,6 9
18.01.2021 08:00:00 -5,2 -5,9 5 3 ZO 1016,7 8
18.01.2021 07:00:00 -6,3 -7,1 8 4 ZO 1017,0 7
18.01.2021 06:00:00 -6,6 -7,4 5 3 ZO 1017,3 7
18.01.2021 05:00:00 -7,4 -8,3 5 3 OZO 1017,9 7
18.01.2021 04:00:00 -8,0 -8,9 5 3 ZO 1018,3 5
18.01.2021 03:00:00 -8,4 -9,5 5 3 ZO 1018,7 2,0
18.01.2021 02:00:00 -9,1 -10,2 4 2 ZO 1019,2 0,6
18.01.2021 01:00:00 -9,3 -10,4 4 2 ZO 1019,6 0,1
18.01.2021 00:00:00 -8,1 -9,0 0 0 N 1019,9 0,1
17.01.2021 23:00:00 -7,2 -8,1 0 0 N 1020,2 -
17.01.2021 22:00:00 -8,3 -9,2 2 1 O 1020,4 0,1
17.01.2021 21:00:00 -8,0 -8,9 9 5 OZO 1020,7 0,1
17.01.2021 20:00:00 -7,0 -7,8 5 3 OZO 1020,7 0,1
17.01.2021 19:00:00 -4,2 -4,6 4 2 ZO 1020,7 0,3
17.01.2021 18:00:00 -2,2 -2,8 4 2 OZO 1020,7 8
17.01.2021 17:00:00 -1,7 -2,3 0 0 N 1020,7 10
17.01.2021 16:00:00 -1,3 -2,1 0 0 N 1020,4 10
17.01.2021 15:00:00 -1,1 -2,4 5 3 W 1020,2 10
17.01.2021 14:00:00 -0,8 -2,8 5 3 - 1020,0 10
17.01.2021 13:00:00 -0,9 -2,9 11 6 OZO 1020,1 10
17.01.2021 12:00:00 -1,2 -3,2 11 6 OZO 1020,3 10
17.01.2021 11:00:00 -1,9 -3,8 16 9 O 1020,2 10
17.01.2021 10:00:00 -2,8 -4,1 5 3 O 1019,9 10
17.01.2021 09:00:00 -2,8 -4,1 8 4 O 1019,4 10
17.01.2021 08:00:00 -3,4 -4,2 5 3 ONO 1019,1 10
17.01.2021 07:00:00 -3,4 -4,4 0 0 N 1018,9 10
17.01.2021 06:00:00 -3,3 -4,3 0 0 N 1018,8 10
17.01.2021 05:00:00 -3,4 -4,2 9 5 OZO 1018,3 10
17.01.2021 04:00:00 -4,3 -5,1 9 5 OZO 1018,4 10
17.01.2021 03:00:00 -4,3 -4,8 0 0 N 1018,7 10
17.01.2021 02:00:00 -5,0 -5,7 5 3 OZO 1019,0 10
17.01.2021 01:00:00 -4,8 -5,5 13 7 OZO 1018,9 10
17.01.2021 00:00:00 -5,1 -5,9 11 6 OZO 1019,4 10
16.01.2021 23:00:00 -5,7 -7,1 15 8 O 1019,4 10
16.01.2021 22:00:00 -7,1 -8,3 8 4 OZO 1019,3 10
16.01.2021 21:00:00 -9,2 -10,3 0 0 N 1019,5 10
16.01.2021 20:00:00 -9,7 -10,6 0 0 N 1019,4 10
16.01.2021 19:00:00 -8,5 -9,7 4 2 - 1019,5 10
16.01.2021 18:00:00 -6,9 -10,1 13 7 W 1019,5 10
16.01.2021 17:00:00 -5,9 -8,0 9 5 NW 1020,0 10
16.01.2021 16:00:00 -3,6 -6,5 13 7 WNW 1020,2 10
16.01.2021 15:00:00 -3,6 -6,9 13 7 W 1020,3 10
16.01.2021 14:00:00 -4,2 -6,0 13 7 WNW 1020,9 10
16.01.2021 13:00:00 -2,8 -3,8 15 8 NW 1021,6 10
16.01.2021 12:00:00 -5,6 -6,6 13 7 NW 1021,9 10
16.01.2021 11:00:00 -10,2 -11,5 8 4 NW 1022,7 10
16.01.2021 10:00:00 -12,1 -13,5 0 0 N 1022,9 8
16.01.2021 09:00:00 -12,1 -13,4 5 3 NW 1023,2 10
16.01.2021 08:00:00 -12,4 -13,8 0 0 N 1023,3 10
16.01.2021 07:00:00 -12,5 -13,9 4 2 OZO 1023,9 10
16.01.2021 06:00:00 -15,4 -17,1 0 0 N 1024,6 10
16.01.2021 05:00:00 -13,6 -15,0 4 2 OZO 1025,2 10
16.01.2021 04:00:00 -15,5 -17,2 5 3 ZZW 1025,7 10
16.01.2021 03:00:00 -13,4 -15,0 2 1 ZZO 1026,1 10
16.01.2021 02:00:00 -10,6 -11,9 8 4 N 1026,2 10
16.01.2021 01:00:00 -11,6 -13,0 11 6 NNW 1026,5 10
16.01.2021 00:00:00 -10,5 -12,5 15 8 N 1026,9 10
15.01.2021 23:00:00 -10,8 -12,5 11 6 N 1026,8 10
15.01.2021 22:00:00 -10,7 -12,0 9 5 N 1026,8 10
15.01.2021 21:00:00 -11,3 -12,7 13 7 N 1026,6 10
15.01.2021 20:00:00 -8,3 -10,5 13 7 NNO 1026,6 10
15.01.2021 19:00:00 -11,3 -12,6 4 2 NNW 1026,3 10
15.01.2021 18:00:00 -9,9 -10,8 4 2 NNO 1026,1 10
15.01.2021 17:00:00 -7,0 -8,9 2 1 OZO 1026,2 10
15.01.2021 16:00:00 -5,7 -8,4 0 0 N 1026,0 10
15.01.2021 15:00:00 -4,9 -8,5 2 1 - 1026,2 10
15.01.2021 14:00:00 -5,6 -9,2 9 5 NNW 1026,3 10
15.01.2021 13:00:00 -4,8 -9,2 0 0 N 1026,5 10
15.01.2021 12:00:00 -5,9 -10,0 4 2 - 1027,0 10
15.01.2021 11:00:00 -6,3 -10,2 9 5 W 1026,9 10
15.01.2021 10:00:00 -7,0 -10,3 5 3 W 1026,3 10
15.01.2021 09:00:00 -7,3 -10,6 4 2 W 1026,2 10
15.01.2021 08:00:00 -6,7 -11,1 22 12 N 1025,3 10
15.01.2021 07:00:00 -7,9 -10,4 8 4 W 1024,9 10
15.01.2021 06:00:00 -8,7 -11,1 8 4 NNW 1024,9 10
15.01.2021 05:00:00 -6,0 -9,2 13 7 NNO 1024,6 10
15.01.2021 04:00:00 -5,4 -8,3 16 9 N 1024,2 10
15.01.2021 03:00:00 -4,2 -7,1 5 3 N 1023,9 10
15.01.2021 02:00:00 -3,2 -6,7 13 7 N 1023,7 10
15.01.2021 01:00:00 -3,0 -6,3 11 6 N 1023,6 10
15.01.2021 00:00:00 -2,9 -6,0 9 5 N 1023,7 10
14.01.2021 23:00:00 -2,5 -6,1 15 8 N 1023,6 10
14.01.2021 22:00:00 -2,9 -5,6 11 6 N 1023,3 10
14.01.2021 21:00:00 -2,4 -5,3 9 5 NNW 1023,1 10
14.01.2021 20:00:00 -2,5 -5,6 5 3 NNW 1023,1 10
14.01.2021 19:00:00 -2,0 -5,2 11 6 N 1022,8 10

tt = temperatuur
td = dauwpunt
ff = windsnelheid
dd = windrichting
ppp = luchtdruk
vv = zicht

Weerstations in de omgeving